Tiempo atmosférico en la estación meteorológica de Hervas, Cáceres (738 m.)



Fecha
DESCASC
Temp. máxima en grados centígrados (hora)
DESCASC
Temp. mínima en grados centígrados (hora)
DESCASC
Temp. media en grados centígrados
DESCASC
Racha de viento máxima en m/sg (hora)
DESCASC
Velocidad máxima media en intervalos de 10 minutos(hora)
DESCASC
Precipitaciones diarias en mm
DESCASC
Precipitaciones de 00:00 a 06:00 en mm
DESCASC
Precipitaciones de 06:00 a 12:00 en mm
DESCASC
Precipitaciones de 12:00 a 18:00 en mm
DESCASC
Precipitaciones de 18:00 a 24:00 en mm
DESCASC
24-01-2021 10.8 (15:30) 4.3 (08:20) 7.6 9.17 (06:40) 3.89 (06:10) 0.4 0 0 0 0.4
23-01-2021 11.8 (22:40) 3.5 (00:00) 7.7 16.39 (18:20) 6.39 (18:20) 10.8 0.2 1.4 3.8 5.4
22-01-2021 11.2 (00:00) 3.2 (13:10) 7.2 18.61 (04:20) 7.78 (04:10) 11.8 0.4 2.2 9.2 0
21-01-2021 11.7 (19:10) 8 (00:00) 9.8 16.94 (12:20) 6.94 (13:30) 6.2 0.4 0.2 4 1.6
20-01-2021 10.6 (14:10) 6.2 (00:00) 8.4 20.56 (04:40) 11.67 (08:30) 19.4 1.4 14.2 1.6 2.2
19-01-2021 7.8 (15:50) 1.6 (00:00) 4.7 15.83 (23:40) 6.94 (22:50) 0 0 0 0 0
18-01-2021 13 (16:20) 2.5 (00:00) 7.8 5.83 (07:50) 3.89 (07:50) 0 0 0 0 0
17-01-2021 14.4 (12:40) 3.1 (00:00) 8.7 5.56 (03:50) 3.61 (10:50) 0 0 0 0 0
16-01-2021 14.5 (16:50) 2.1 (00:00) 8.3 5.28 (22:10) 3.61 (22:10) 0 0 0 0 0
15-01-2021 12.7 (15:50) 0.9 (00:00) 6.8 6.11 (16:10) 3.61 (05:20) 0 0 0 0 0
14-01-2021 15 (16:00) 0.1 (01:20) 7.6 6.39 (16:30) 3.61 (22:00) 0 0 0 0 0
13-01-2021 11.2 (16:20) -1.1 (-00:0) 5 4.72 (20:40) 3.06 (20:40) 0 0 0 0 0
12-01-2021 8.3 (16:20) -3 (-00:0) 2.7 5 (03:50) 3.06 (03:20) 0 0 0 0 0
11-01-2021 5.2 (13:40) -3.1 (-00:0) 1 10.83 (14:30) 5.83 (16:30) 0 0 0 0 0
10-01-2021 4.6 (13:30) -3.7 (06:10) 0.4 15.28 (15:50) 6.39 (15:00) 0 0 0 0 0
09-01-2021 1.2 (13:30) -1.1 (-00:0) 0.1 8.33 (14:40) 3.89 (14:50) 0 0 0 0 0
08-01-2021 2.3 (15:10) -2.9 (-00:0) -0.3 4.17 (13:40) 2.5 (05:50) 0 0 0 0 0
07-01-2021 6.2 (14:50) -2.3 (-00:0) 1.9 3.89 (02:00) 2.78 (02:00) 0 0 0 0 0
06-01-2021 5.8 (16:00) -3.2 (-00:0) 1.3 4.44 (02:10) 3.33 (03:50) 0 0 0 0 0
05-01-2021 5.4 (15:30) -3.1 (-00:0) 1.2 4.44 (18:10) 3.61 (19:10) 0 0 0 0 0
04-01-2021 5.5 (16:50) -1.1 (-00:0) 2.2 5 (14:30) 2.78 (23:50) 0 0 0 0 0
03-01-2021 5.9 (15:10) -2.1 (-00:0) 1.9 4.72 (15:40) 2.78 (15:40) 0 0 0 0 0
02-01-2021 3.9 (17:10) -1.5 (-00:0) 1.2 8.61 (13:20) 3.89 (13:50) 0 0 0 0 0
01-01-2021 4.7 (11:40) 0.3 (00:00) 2.5 8.61 (22:30) 3.89 (22:30) 0 0 0 0 0
31-12-2020 5.2 (13:20) -0.1 (00:00) 2.5 10.28 (23:50) 3.61 (23:50) 8.4 0 0 4 4.4
30-12-2020 7.5 (15:10) -0.5 (-00:0) 3.5 7.5 (15:30) 3.89 (15:20) 0 0 0 0 0
29-12-2020 5.8 (14:40) 1.8 (00:00) 3.8 8.89 (22:20) 3.33 (14:40) 2.4 0.2 1.8 0.4 0
28-12-2020 6.9 (00:00) 2.5 (00:00) 4.7 13.61 (01:50) 5.83 (02:10) 8 7.8 0 0 0.2

Gráficas

Temp. máximas Temp. mínimas Temp. medias Precipitaciones Rachas de viento máximas Velocidades máximas media en intervalos de 10 minutos

Datos horarios

Fecha y hora oficial Temperatura (ºC) Velocidad del viento (km/h) Dirección del viento Racha (km/h) Dirección de racha Precipitación (mm) Presión (hPa) Tendencia (hPa) Humedad (%)
2021-01-26 23:00:00 12 0 Calma 5 Sudeste 0 -- -- 100
2021-01-26 22:00:00 11.9 5 Sudeste 7 Sudeste 0.4 -- -- 100
2021-01-26 21:00:00 11.9 2 Sudeste 4 Sur 0 -- -- 100
2021-01-26 20:00:00 11.8 3 Sudeste 4 Sur 0.2 -- -- 100
2021-01-26 19:00:00 11.8 0 Calma 2 Oeste 1.8 -- -- 100
2021-01-26 18:00:00 12 0 Calma 3 Nordeste 0 -- -- 100
2021-01-26 17:00:00 12 0 Calma 8 Oeste 0.4 -- -- 100
2021-01-26 16:00:00 11.9 4 Noroeste 9 Oeste 0 -- -- 100
2021-01-26 15:00:00 12 3 Noroeste 8 Noroeste 0 -- -- 99
2021-01-26 14:00:00 12.2 2 Norte 5 Nordeste 0 -- -- 98
2021-01-26 13:00:00 11.6 2 Noroeste 6 Norte 0 -- -- 97
2021-01-26 12:00:00 11.4 3 Norte 6 Este 0 -- -- 100
2021-01-26 11:00:00 10.8 0 Calma 5 Noroeste 0 -- -- 100
2021-01-26 10:00:00 10.4 2 Norte 4 Este 0 -- -- 100
2021-01-26 09:00:00 9.9 2 Sudeste 4 Sur 0 -- -- 100
2021-01-26 08:00:00 10 0 Calma 3 Sudeste 0 -- -- 100
2021-01-26 07:00:00 10.1 0 Calma 3 Nordeste 0.2 -- -- 100
2021-01-26 06:00:00 10.1 3 Nordeste 8 Noroeste 0 -- -- 100
2021-01-26 05:00:00 10.4 3 Noroeste 5 Oeste 0.2 -- -- 100
2021-01-26 04:00:00 10.6 3 Este 5 Este 0 -- -- 100
2021-01-26 03:00:00 10.9 2 Oeste 3 Oeste 0 -- -- 100
2021-01-26 02:00:00 11 0 Calma 8 Oeste 0 -- -- 100
2021-01-26 01:00:00 11 3 Sudeste 5 Sudeste 0 -- -- 100
2021-01-26 00:00:00 11.1 0 Calma 5 Norte 0.2 -- -- 100
2021-01-25 23:00:00 11.1 3 Noroeste 9 Oeste 0.8 -- -- 100
2021-01-25 22:00:00 11.1 3 Noroeste 8 Noroeste 2 -- -- 100
2021-01-25 21:00:00 11.1 3 Noroeste 19 Oeste 2.4 -- -- 100
2021-01-25 20:00:00 11.5 4 Noroeste 9 Oeste 1.2 -- -- 99
2021-01-25 19:00:00 11.7 0 Calma 29 Oeste 1.2 -- -- 97
2021-01-25 18:00:00 12 9 Sudoeste 27 Sudoeste 0.4 -- -- 95
2021-01-25 17:00:00 11.6 12 Oeste 30 Oeste 1.2 -- -- 100
2021-01-25 16:00:00 11.5 8 Noroeste 21 Oeste 2 -- -- 99
2021-01-25 15:00:00 11.4 9 Oeste 27 Oeste 0.6 -- -- 96
2021-01-25 14:00:00 11.4 9 Oeste 28 Oeste 0.6 -- -- 95
2021-01-25 13:00:00 11.2 13 Oeste 33 Sudoeste 0.2 -- -- 97
2021-01-25 12:00:00 11.3 13 Oeste 38 Sudoeste 0.2 -- -- 95
2021-01-25 11:00:00 11.1 10 Oeste 31 Oeste 0.2 -- -- 96
2021-01-25 10:00:00 10.6 9 Oeste 25 Oeste 0 -- -- 97
2021-01-25 09:00:00 9.9 7 Noroeste 19 Sudoeste 0.4 -- -- 98
2021-01-25 08:00:00 10.1 10 Oeste 24 Noroeste 0 -- -- 96
2021-01-25 07:00:00 10.1 11 Sudoeste 34 Sudoeste 0.2 -- -- 93
2021-01-25 06:00:00 9.8 6 Oeste 35 Oeste 0.2 -- -- 95
2021-01-25 05:00:00 9.6 12 Sudoeste 39 Oeste 0.2 -- -- 94
2021-01-25 04:00:00 9.7 12 Sudoeste 28 Sudoeste 0.2 -- -- 93
2021-01-25 03:00:00 9.3 9 Oeste 28 Sudoeste 0.2 -- -- 94
2021-01-25 02:00:00 8.4 5 Sur 13 Sur 0.4 -- -- 97
2021-01-25 01:00:00 8 3 Este 8 Nordeste 1.2 -- -- 98
2021-01-25 00:00:00 8.3 2 Sudoeste 9 Oeste 0.4 -- -- 95
2021-01-24 23:00:00 8 2 Sur 6 Este 0 -- -- 94
2021-01-24 22:00:00 8 3 Sudeste 9 Este 0 -- -- 90
2021-01-24 21:00:00 7.6 4 Sudeste 8 Sudeste 0 -- -- 86
2021-01-24 20:00:00 7.4 3 Sudeste 6 Sudeste 0 -- -- 85
2021-01-24 19:00:00 7.8 2 Sudoeste 5 Sudeste 0 -- -- 83
2021-01-24 18:00:00 8.5 2 Nordeste 10 Oeste 0 -- -- 82
2021-01-24 17:00:00 9 6 Noroeste 17 Noroeste 0 -- -- 79
2021-01-24 16:00:00 10.1 8 Oeste 22 Noroeste 0 -- -- 67
2021-01-24 15:00:00 10.3 10 Oeste 19 Noroeste 0 -- -- 63
2021-01-24 14:00:00 10.2 3 Norte 16 Oeste 0 -- -- 70
2021-01-24 13:00:00 9.4 4 Oeste 12 Oeste 0 -- -- 67
2021-01-24 12:00:00 8.7 0 Calma 12 Sur 0 -- -- 70
2021-01-24 11:00:00 6.5 5 Sudeste 10 Sudeste 0 -- -- 83
2021-01-24 10:00:00 5.5 4 Sur 20 Norte 0 -- -- 82
2021-01-24 09:00:00 5.3 6 Norte 19 Nordeste 0 -- -- 80
2021-01-24 08:00:00 4.8 3 Sudeste 8 Sur 0 -- -- 90
2021-01-24 07:00:00 7.1 5 Norte 33 Noroeste 0 -- -- 74
2021-01-24 06:00:00 7.8 12 Norte 28 Norte 0 -- -- 80
2021-01-24 05:00:00 6.5 5 Sur 9 Sur 0 -- -- 95
2021-01-24 04:00:00 6.6 5 Sudeste 9 Sudeste 0 -- -- 97
2021-01-24 03:00:00 7.5 3 Nordeste 6 Nordeste 0 -- -- 97
2021-01-24 02:00:00 8 3 Sur 7 Sudeste 0 -- -- 95
2021-01-24 01:00:00 10 4 Noroeste 15 Noroeste 0 -- -- 96
2021-01-24 00:00:00 10.7 2 Noroeste 29 Sudoeste 0 -- -- 95
2021-01-23 23:00:00 11.6 13 Oeste 41 Sudoeste 0.4 -- -- 90
2021-01-23 22:00:00 11.4 15 Sudoeste 49 Sudoeste 1.2 -- -- 94
2021-01-23 21:00:00 11.3 16 Sudoeste 45 Sudoeste 0.8 -- -- 95
2021-01-23 20:00:00 11.4 18 Sudoeste 53 Oeste 1.4 -- -- 94
2021-01-23 19:00:00 11.7 19 Sudoeste 59 Oeste 1.6 -- -- 91
2021-01-23 18:00:00 11.2 18 Oeste 51 Oeste 0.6 -- -- 91
2021-01-23 17:00:00 10.3 9 Oeste 37 Oeste 0.4 -- -- 92
2021-01-23 16:00:00 8.2 6 Norte 30 Sudoeste 0.2 -- -- 98
2021-01-23 15:00:00 8.3 5 Noroeste 26 Sudoeste 0 -- -- 93
2021-01-23 14:00:00 7.9 8 Oeste 45 Sudoeste 0.8 -- -- 91
2021-01-23 13:00:00 7.6 13 Sudoeste 41 Oeste 1.8 -- -- 88
2021-01-23 12:00:00 6.8 7 Oeste 28 Oeste 1.4 -- -- 92
2021-01-23 11:00:00 6.3 4 Sur 27 Oeste 0 -- -- 86
2021-01-23 10:00:00 6.2 6 Sudoeste 21 Oeste 0 -- -- 88
2021-01-23 09:00:00 5.9 10 Sudoeste 25 Sudoeste 0 -- -- 90
2021-01-23 08:00:00 4.7 0 Calma 6 Oeste 0 -- -- 97
2021-01-23 07:00:00 4.4 0 Calma 7 Norte 0 -- -- 99
2021-01-23 06:00:00 4.5 0 Calma 23 Oeste 0 -- -- 97
2021-01-23 05:00:00 4.7 8 Oeste 26 Oeste 0 -- -- 97
2021-01-23 04:00:00 4.5 8 Oeste 25 Oeste 0 -- -- 98
2021-01-23 03:00:00 4.2 0 Calma 8 Noroeste 0.2 -- -- 98
2021-01-23 02:00:00 4.4 4 Noroeste 13 Oeste 0 -- -- 92
2021-01-23 01:00:00 3.9 2 Sur 8 Este 0 -- -- 90
2021-01-23 00:00:00 3.5 4 Sudeste 12 Sur 0 -- -- 92
2021-01-22 23:00:00 4.3 7 Sur 13 Sur 0 -- -- 91
2021-01-22 22:00:00 4.4 5 Sudeste 9 Sudeste 0 -- -- 94
2021-01-22 21:00:00 4.8 5 Sudeste 11 Sur 0 -- -- 91
2021-01-22 20:00:00 4.9 5 Sur 9 Sur 0 -- -- 94
2021-01-22 19:00:00 4.9 6 Sudeste 13 Sudeste 0 -- -- 92
2021-01-22 18:00:00 5.4 6 Sudeste 10 Sudeste 0.4 -- -- 93
2021-01-22 17:00:00 5.4 5 Sudeste 6 Sudeste 0 -- -- 90
2021-01-22 16:00:00 5.6 3 Norte 11 Este 0 -- -- 89
2021-01-22 15:00:00 5.4 4 Este 10 Sudeste 0 -- -- 90
2021-01-22 14:00:00 4 5 Sudeste 11 Sudeste 1.6 -- -- 97
2021-01-22 13:00:00 3.4 4 Sur 28 Noroeste 7.2 -- -- 94
2021-01-22 12:00:00 5.9 9 Oeste 24 Sudoeste 1 -- -- 97
2021-01-22 11:00:00 5.8 7 Oeste 25 Oeste 0.6 -- -- 93
2021-01-22 10:00:00 5.7 9 Oeste 22 Oeste 0.4 -- -- 96
2021-01-22 09:00:00 5.5 6 Noroeste 21 Oeste 0.2 -- -- 89
2021-01-22 08:00:00 5.9 10 Oeste 25 Oeste 0 -- -- 83
2021-01-22 07:00:00 5.8 8 Oeste 46 Oeste 0 -- -- 87
2021-01-22 06:00:00 8.5 20 Oeste 56 Sudoeste 0 -- -- 71
2021-01-22 05:00:00 9.4 22 Sudoeste 67 Oeste 0 -- -- 87
2021-01-22 04:00:00 10 23 Sudoeste 59 Sudoeste 0 -- -- 88
2021-01-22 03:00:00 10.3 23 Sudoeste 58 Sudoeste 0 -- -- 88
2021-01-22 02:00:00 10.3 20 Sudoeste 49 Oeste 0.4 -- -- 89
2021-01-22 01:00:00 10.2 14 Oeste 47 Sudoeste 0 -- -- 94
2021-01-22 00:00:00 11.2 18 Sudoeste 42 Sudoeste 0.4 -- -- 76
2021-01-21 23:00:00 10.6 13 Sudoeste 35 Sudoeste 0.2 -- -- 89
2021-01-21 22:00:00 11 13 Sudoeste 40 Sudoeste 0 -- -- 82
2021-01-21 21:00:00 10.9 14 Sudoeste 41 Sudoeste 0.6 -- -- 88
2021-01-21 20:00:00 11.4 19 Sudoeste 53 Sudoeste 0 -- -- 85
2021-01-21 19:00:00 11.2 18 Sudoeste 48 Sur 0.4 -- -- 84
2021-01-21 18:00:00 10.5 11 Sudoeste 50 Oeste 1 -- -- 88
2021-01-21 17:00:00 9.9 17 Oeste 46 Oeste 1.4 -- -- 91
2021-01-21 16:00:00 10.4 17 Sudoeste 49 Oeste 0.2 -- -- 85
2021-01-21 15:00:00 10.1 16 Sudoeste 52 Oeste 0.6 -- -- 88
2021-01-21 14:00:00 9.7 12 Sudoeste 54 Sur 0.4 -- -- 90
2021-01-21 13:00:00 10.9 8 Sudoeste 61 Oeste 0.4 -- -- 84
2021-01-21 12:00:00 9.1 4 Norte 21 Oeste 0 -- -- 87
2021-01-21 11:00:00 8.9 9 Sudoeste 29 Sudoeste 0 -- -- 87
2021-01-21 10:00:00 8.6 11 Oeste 31 Sudoeste 0.2 -- -- 87
2021-01-21 09:00:00 8.4 9 Sudoeste 26 Oeste 0 -- -- 92
2021-01-21 08:00:00 8.3 9 Sudoeste 22 Sudoeste 0 -- -- 88
2021-01-21 07:00:00 8.3 7 Sudoeste 18 Sudoeste 0 -- -- 85
2021-01-21 06:00:00 8.1 5 Oeste 30 Sudoeste 0 -- -- 92
2021-01-21 05:00:00 8.1 6 Oeste 23 Sudoeste 0 -- -- 97
2021-01-21 04:00:00 8.2 7 Sudoeste 29 Sudoeste 0.2 -- -- 96
2021-01-21 03:00:00 8.1 7 Oeste 24 Sudoeste 0 -- -- 97
2021-01-21 02:00:00 8.4 10 Oeste 30 Sudoeste 0.2 -- -- 93
2021-01-21 01:00:00 8.5 12 Sudoeste 31 Oeste 0 -- -- 94
2021-01-21 00:00:00 8.5 13 Sudoeste 38 Oeste 0.2 -- -- 93
2021-01-20 23:00:00 8.3 13 Sudoeste 39 Sudoeste 0 -- -- 92
2021-01-20 22:00:00 8.5 11 Oeste 34 Oeste 0 -- -- 91
2021-01-20 21:00:00 8.7 15 Sudoeste 41 Oeste 0.4 -- -- 89
2021-01-20 20:00:00 9.4 17 Sudoeste 48 Sudoeste 1.6 -- -- 82
2021-01-20 19:00:00 9.8 19 Sudoeste 42 Sudoeste 0 -- -- 83
2021-01-20 18:00:00 10.4 14 Sudoeste 42 Sudoeste 0 -- -- 77
2021-01-20 17:00:00 10.6 21 Sudoeste 45 Sur 1 -- -- 73
2021-01-20 16:00:00 10.3 9 Sudoeste 49 Sudoeste 0.4 -- -- 74
2021-01-20 15:00:00 10.6 17 Sudoeste 54 Sudoeste 0.2 -- -- 70
2021-01-20 14:00:00 10.4 14 Sur 55 Sudoeste 0 -- -- 73
2021-01-20 13:00:00 8.9 26 Sur 50 Sur 0 -- -- 79
2021-01-20 12:00:00 8.9 10 Sur 42 Sur 0 -- -- 77
2021-01-20 11:00:00 8.3 27 Sur 57 Sudeste 0.2 -- -- 79
2021-01-20 10:00:00 7.6 25 Sur 68 Sur 0.4 -- -- 81
2021-01-20 09:00:00 7.4 32 Sur 69 Sudeste 1.4 -- -- 79
2021-01-20 08:00:00 6.2 27 Sur 48 Sur 5.8 -- -- 80
2021-01-20 07:00:00 7.2 18 Sur 60 Sur 6.4 -- -- 78
2021-01-20 06:00:00 7.3 28 Sur 60 Sur 1.4 -- -- 79
2021-01-20 05:00:00 7.3 37 Sudeste 74 Sur 0 -- -- 75
2021-01-20 04:00:00 7.4 23 Sur 55 Sur 0 -- -- 74
2021-01-20 03:00:00 7.4 12 Sur 50 Sudoeste 0 -- -- 72
2021-01-20 02:00:00 7.1 11 Norte 38 Sur 0 -- -- 70
2021-01-20 01:00:00 7.2 16 Sudoeste 55 Sudoeste 0 -- -- 67
2021-01-20 00:00:00 7.4 12 Sur 57 Sudeste 0 -- -- 66
2021-01-19 23:00:00 7.4 24 Sur 53 Sudeste 0 -- -- 66
2021-01-19 22:00:00 6.8 9 Norte 31 Nordeste 0 -- -- 66
2021-01-19 21:00:00 4.9 5 Nordeste 16 Noroeste 0 -- -- 77
2021-01-19 20:00:00 3.4 3 Sudeste 10 Sudeste 0 -- -- 88
2021-01-19 19:00:00 3.8 4 Sudeste 8 Sudeste 0 -- -- 87
2021-01-19 18:00:00 5.9 3 Noroeste 16 Noroeste 0 -- -- 79
2021-01-19 17:00:00 6.6 4 Noroeste 18 Noroeste 0 -- -- 74
2021-01-19 16:00:00 7.4 7 Oeste 16 Noroeste 0 -- -- 68
2021-01-19 15:00:00 6.5 3 Este 8 Nordeste 0 -- -- 74
2021-01-19 14:00:00 5.4 3 Norte 15 Oeste 0 -- -- 79
2021-01-19 13:00:00 5.4 5 Noroeste 15 Noroeste 0 -- -- 75
2021-01-19 12:00:00 5.6 5 Noroeste 13 Oeste 0 -- -- 74
2021-01-19 11:00:00 5.1 2 Este 8 Sur 0 -- -- 69
2021-01-19 10:00:00 1.6 5 Sur 9 Sur 0 -- -- 81
2021-01-19 09:00:00 1.9 5 Sudeste 13 Sudeste 0 -- -- 77
2021-01-19 08:00:00 3 4 Sudoeste 11 Sur 0 -- -- 71
2021-01-19 07:00:00 3 4 Sudeste 13 Sudeste 0 -- -- 71
2021-01-19 06:00:00 1.7 6 Sudeste 11 Sudeste 0 -- -- 83
2021-01-19 05:00:00 2.2 7 Sudeste 13 Sudeste 0 -- -- 80
2021-01-19 04:00:00 2.1 7 Sur 12 Sur 0 -- -- 79
2021-01-19 03:00:00 2.3 7 Sur 12 Sudeste 0 -- -- 79
2021-01-19 02:00:00 1.8 8 Sur 11 Sur 0 -- -- 81
2021-01-19 01:00:00 2.2 8 Sudeste 11 Sur 0 -- -- 74
2021-01-19 00:00:00 2.5 8 Sudeste 12 Sur 0 -- -- 71
2021-01-18 23:00:00 3.3 9 Sur 14 Sur 0 -- -- 64
2021-01-18 22:00:00 4 12 Sur 17 Sur 0 -- -- 63
2021-01-18 21:00:00 3.6 10 Sur 15 Sur 0 -- -- 67
2021-01-18 20:00:00 3.8 10 Sur 15 Sur 0 -- -- 71
2021-01-18 19:00:00 4.9 10 Sur 14 Sur 0 -- -- 66
2021-01-18 18:00:00 8.2 9 Sur 13 Sur 0 -- -- 54
2021-01-18 17:00:00 12.9 3 Noroeste 11 Oeste 0 -- -- 40
2021-01-18 16:00:00 12.6 5 Noroeste 12 Noroeste 0 -- -- 38
2021-01-18 15:00:00 12.5 7 Noroeste 13 Oeste 0 -- -- 39
2021-01-18 14:00:00 12.4 5 Noroeste 12 Noroeste 0 -- -- 41
2021-01-18 13:00:00 11.7 5 Noroeste 9 Oeste 0 -- -- 39
2021-01-18 12:00:00 10.8 3 Norte 9 Sur 0 -- -- 40
2021-01-18 11:00:00 7.8 7 Sur 15 Sur 0 -- -- 49
2021-01-18 10:00:00 3.9 9 Sur 16 Sur 0 -- -- 58
2021-01-18 09:00:00 3.5 12 Sur 16 Sudeste 0 -- -- 59
2021-01-18 08:00:00 3.5 12 Sur 21 Sur 0 -- -- 59
2021-01-18 07:00:00 3.5 9 Sur 16 Sur 0 -- -- 61
2021-01-18 06:00:00 3.1 8 Sudeste 13 Sur 0 -- -- 60
2021-01-18 05:00:00 3.4 6 Sudeste 15 Sur 0 -- -- 58
2021-01-18 04:00:00 2.8 9 Sur 15 Sur 0 -- -- 60
2021-01-18 03:00:00 3.2 10 Sur 14 Sur 0 -- -- 57
2021-01-18 02:00:00 3.5 6 Sudeste 14 Sur 0 -- -- 54
2021-01-18 01:00:00 3.5 7 Sur 12 Sudeste 0 -- -- 55
2021-01-18 00:00:00 3.7 8 Sudeste 12 Sur 0 -- -- 54
2021-01-17 23:00:00 4.8 10 Sur 16 Sur 0 -- -- 49
2021-01-17 22:00:00 5.3 9 Sudeste 18 Sur 0 -- -- 45
2021-01-17 21:00:00 5.3 13 Sur 19 Sur 0 -- -- 41
2021-01-17 20:00:00 4.5 8 Sur 13 Sur 0 -- -- 47
2021-01-17 19:00:00 7.3 11 Sur 14 Sur 0 -- -- 39
2021-01-17 18:00:00 7.8 5 Sur 9 Sur 0 -- -- 46
2021-01-17 17:00:00 12.3 3 Oeste 6 Noroeste 0 -- -- 47
2021-01-17 16:00:00 12.2 3 Noroeste 8 Noroeste 0 -- -- 49
2021-01-17 15:00:00 11.7 5 Noroeste 10 Noroeste 0 -- -- 48
2021-01-17 14:00:00 11.2 4 Noroeste 8 Noroeste 0 -- -- 49
2021-01-17 13:00:00 13.1 0 Calma 9 Oeste 0 -- -- 38
2021-01-17 12:00:00 13.6 5 Sudoeste 16 Sur 0 -- -- 17
2021-01-17 11:00:00 9.5 12 Sur 18 Sur 0 -- -- 27
2021-01-17 10:00:00 4.4 9 Sur 16 Sur 0 -- -- 36
2021-01-17 09:00:00 3.7 8 Sur 16 Sur 0 -- -- 38
2021-01-17 08:00:00 3.5 10 Sur 17 Sur 0 -- -- 41
2021-01-17 07:00:00 3.8 10 Sur 15 Sur 0 -- -- 40
2021-01-17 06:00:00 4.8 12 Sur 17 Sur 0 -- -- 36
2021-01-17 05:00:00 4 9 Sudeste 15 Sur 0 -- -- 42
2021-01-17 04:00:00 4.5 10 Sudeste 20 Sur 0 -- -- 42
2021-01-17 03:00:00 4.7 12 Sur 17 Sur 0 -- -- 41
2021-01-17 02:00:00 4.5 8 Sudeste 15 Sur 0 -- -- 43
2021-01-17 01:00:00 4.6 10 Sur 15 Sur 0 -- -- 40
2021-01-17 00:00:00 4.6 8 Sudeste 13 Sur 0 -- -- 46
2021-01-16 23:00:00 5 8 Sur 19 Sur 0 -- -- 47
2021-01-16 22:00:00 5.1 10 Sudeste 15 Sur 0 -- -- 49
2021-01-16 21:00:00 4.5 9 Sur 13 Sur 0 -- -- 52
2021-01-16 20:00:00 4.9 8 Sudeste 15 Sur 0 -- -- 53
2021-01-16 19:00:00 5.4 10 Sur 15 Sur 0 -- -- 52
2021-01-16 18:00:00 7.7 8 Sur 12 Sur 0 -- -- 47
2021-01-16 17:00:00 13.5 3 Sur 7 Oeste 0 -- -- 32
2021-01-16 16:00:00 13.9 3 Norte 9 Noroeste 0 -- -- 27
2021-01-16 15:00:00 13.4 6 Noroeste 10 Noroeste 0 -- -- 24
2021-01-16 14:00:00 12 2 Norte 6 Nordeste 0 -- -- 22
2021-01-16 13:00:00 9.2 4 Norte 6 Nordeste 0 -- -- 36
2021-01-16 12:00:00 8.1 3 Norte 9 Sur 0 -- -- 43
2021-01-16 11:00:00 7.3 6 Sudeste 15 Sur 0 -- -- 38
2021-01-16 10:00:00 4 8 Sur 13 Sur 0 -- -- 45
2021-01-16 09:00:00 3.2 8 Sur 18 Sur 0 -- -- 47
2021-01-16 08:00:00 3.2 7 Sudeste 13 Sur 0 -- -- 46
2021-01-16 07:00:00 2.6 11 Sur 16 Sur 0 -- -- 52
2021-01-16 06:00:00 2.8 8 Sur 16 Sur 0 -- -- 51
2021-01-16 05:00:00 3.1 13 Sur 17 Sur 0 -- -- 52
2021-01-16 04:00:00 2.7 10 Sur 16 Sur 0 -- -- 55
2021-01-16 03:00:00 2.1 8 Sudeste 14 Sur 0 -- -- 60
2021-01-16 02:00:00 2.8 8 Sudeste 12 Sudeste 0 -- -- 58
2021-01-16 01:00:00 2.8 5 Sudeste 14 Sudeste 0 -- -- 59
2021-01-16 00:00:00 2.1 8 Sur 15 Sur 0 -- -- 68
2021-01-15 23:00:00 2.6 7 Sudeste 15 Sur 0 -- -- 67
2021-01-15 22:00:00 2.6 9 Sur 15 Sur 0 -- -- 70
2021-01-15 21:00:00 2.7 12 Sur 17 Sur 0 -- -- 70
2021-01-15 20:00:00 3 8 Sur 13 Sur 0 -- -- 71
2021-01-15 19:00:00 3.4 6 Sudeste 13 Sur 0 -- -- 70
2021-01-15 18:00:00 7.2 3 Sur 15 Sudoeste 0 -- -- 55
2021-01-15 17:00:00 10.7 9 Sudoeste 22 Norte 0 -- -- 45
2021-01-15 16:00:00 12.6 8 Noroeste 19 Norte 0 -- -- 37
2021-01-15 15:00:00 11.9 5 Noroeste 14 Noroeste 0 -- -- 39
2021-01-15 14:00:00 10.2 8 Noroeste 13 Oeste 0 -- -- 56
2021-01-15 13:00:00 11.1 3 Sudoeste 13 Oeste 0 -- -- 44
2021-01-15 12:00:00 9.5 6 Sudoeste 19 Sudoeste 0 -- -- 48
2021-01-15 11:00:00 5 4 Sudeste 12 Sur 0 -- -- 51
2021-01-15 10:00:00 1.4 7 Sudeste 13 Sur 0 -- -- 62
2021-01-15 09:00:00 0.9 8 Sudeste 12 Sur 0 -- -- 66
2021-01-15 08:00:00 2.2 9 Sur 17 Sur 0 -- -- 54
2021-01-15 07:00:00 1.7 7 Sudeste 15 Sur 0 -- -- 59
2021-01-15 06:00:00 2 11 Sur 17 Sur 0 -- -- 56
2021-01-15 05:00:00 2.1 9 Sur 12 Sur 0 -- -- 56
2021-01-15 04:00:00 2.6 12 Sur 16 Sur 0 -- -- 56
2021-01-15 03:00:00 2.3 7 Sur 12 Sudeste 0 -- -- 54
2021-01-15 02:00:00 2.5 5 Sudeste 12 Sudeste 0 -- -- 53
2021-01-15 01:00:00 2.2 6 Sudeste 11 Sur 0 -- -- 55
2021-01-15 00:00:00 2.6 10 Sur 14 Sudeste 0 -- -- 51
2021-01-14 23:00:00 5 11 Sur 18 Sur 0 -- -- 35
2021-01-14 22:00:00 4.3 13 Sur 21 Sur 0 -- -- 39
2021-01-14 21:00:00 2.7 7 Sudeste 14 Sur 0 -- -- 52
2021-01-14 20:00:00 2.1 6 Sur 10 Sur 0 -- -- 58
2021-01-14 19:00:00 5.5 4 Sudeste 20 Sudoeste 0 -- -- 45
2021-01-14 18:00:00 9.3 10 Sudoeste 19 Sudoeste 0 -- -- 35
2021-01-14 17:00:00 13.5 6 Sudoeste 23 Noroeste 0 -- -- 24
2021-01-14 16:00:00 15 5 Oeste 15 Sudoeste 0 -- -- 20
2021-01-14 15:00:00 14.2 7 Sudoeste 18 Sudoeste 0 -- -- 22
2021-01-14 14:00:00 12.9 9 Sudoeste 18 Sudoeste 0 -- -- 25
2021-01-14 13:00:00 10.7 6 Oeste 14 Oeste 0 -- -- 24
2021-01-14 12:00:00 8.3 0 Calma 13 Sur 0 -- -- 27
2021-01-14 11:00:00 5 6 Sudeste 10 Sudeste 0 -- -- 40
2021-01-14 10:00:00 1.2 5 Sudeste 10 Sudeste 0 -- -- 46
2021-01-14 09:00:00 1.2 8 Sur 12 Sur 0 -- -- 45
2021-01-14 08:00:00 1.1 4 Sudeste 14 Sudeste 0 -- -- 50
2021-01-14 07:00:00 1.3 10 Sur 15 Sur 0 -- -- 45
2021-01-14 06:00:00 0.4 7 Sudeste 9 Sudeste 0 -- -- 50
2021-01-14 05:00:00 0.4 7 Sur 14 Sur 0 -- -- 52
2021-01-14 04:00:00 0.9 11 Sur 16 Sur 0 -- -- 51
2021-01-14 03:00:00 1.5 8 Sudeste 15 Sur 0 -- -- 48
2021-01-14 02:00:00 0.9 8 Sudeste 12 Sudeste 0 -- -- 54
2021-01-14 01:00:00 0.8 6 Sur 9 Sur 0 -- -- 59
2021-01-14 00:00:00 1.1 5 Sudeste 8 Sudeste 0 -- -- 57
2021-01-13 23:00:00 2.2 9 Sur 13 Sudeste 0 -- -- 53
2021-01-13 22:00:00 1.7 10 Sur 17 Sur 0 -- -- 61
2021-01-13 21:00:00 2.2 8 Sudeste 17 Sur 0 -- -- 61
2021-01-13 20:00:00 2.7 8 Sudeste 13 Sur 0 -- -- 60
2021-01-13 19:00:00 3.5 10 Sur 13 Sudeste 0 -- -- 56
2021-01-13 18:00:00 6.6 8 Sur 10 Sur 0 -- -- 46
2021-01-13 17:00:00 9.6 2 Noroeste 11 Oeste 0 -- -- 50
2021-01-13 16:00:00 11 5 Oeste 9 Noroeste 0 -- -- 49
2021-01-13 15:00:00 10.4 3 Noroeste 13 Noroeste 0 -- -- 50
2021-01-13 14:00:00 7.8 2 Noroeste 6 Noroeste 0 -- -- 53
2021-01-13 13:00:00 5.6 4 Noroeste 10 Noroeste 0 -- -- 57
2021-01-13 12:00:00 5.2 0 Calma 4 Norte 0 -- -- 54
2021-01-13 11:00:00 5 3 Sudeste 12 Sur 0 -- -- 39
2021-01-13 10:00:00 1.7 6 Sudeste 13 Sudeste 0 -- -- 43
2021-01-13 09:00:00 0.7 5 Sur 10 Sur 0 -- -- 46
2021-01-13 08:00:00 0.8 3 Sudeste 9 Sur 0 -- -- 47
2021-01-13 07:00:00 0.8 4 Sur 10 Sur 0 -- -- 47
2021-01-13 06:00:00 0.6 6 Sudeste 10 Sur 0 -- -- 46
2021-01-13 05:00:00 -1.1 4 Sur 9 Sur 0 -- -- 55
2021-01-13 04:00:00 -0.9 5 Sudeste 9 Sudeste 0 -- -- 61
2021-01-13 03:00:00 -0.3 5 Sur 11 Sur 0 -- -- 56
2021-01-13 02:00:00 0.1 5 Sudeste 11 Sudeste 0 -- -- 55
2021-01-13 01:00:00 -0.8 6 Sudeste 9 Sur 0 -- -- 68
2021-01-13 00:00:00 -0.9 7 Sur 9 Sudeste 0 -- -- 72
2021-01-12 23:00:00 -0.3 5 Sudeste 11 Sur 0 -- -- 69
2021-01-12 22:00:00 -0.2 6 Sur 9 Sur 0 -- -- 69
2021-01-12 21:00:00 0.7 5 Sur 14 Sur 0 -- -- 66
2021-01-12 20:00:00 1.5 6 Sudeste 11 Sudeste 0 -- -- 63
2021-01-12 19:00:00 1.3 5 Sudeste 10 Sur 0 -- -- 68
2021-01-12 18:00:00 3.2 3 Sur 6 Sudeste 0 -- -- 61
2021-01-12 17:00:00 7.8 4 Oeste 8 Oeste 0 -- -- 43
2021-01-12 16:00:00 8.1 2 Noroeste 9 Oeste 0 -- -- 42
2021-01-12 15:00:00 6.6 5 Noroeste 11 Noroeste 0 -- -- 44
2021-01-12 14:00:00 6.1 5 Noroeste 9 Noroeste 0 -- -- 48
2021-01-12 13:00:00 5.3 3 Noroeste 9 Oeste 0 -- -- 40
2021-01-12 12:00:00 4.5 3 Oeste 5 Oeste 0 -- -- 32
2021-01-12 11:00:00 1.2 4 Sur 12 Sur 0 -- -- 47
2021-01-12 10:00:00 -1.8 8 Sur 12 Sur 0 -- -- 56
2021-01-12 09:00:00 -2.8 8 Sudeste 13 Sudeste 0 -- -- 64
2021-01-12 08:00:00 -2.8 8 Sudeste 15 Sur 0 -- -- 65
2021-01-12 07:00:00 -2.4 10 Sur 16 Sur 0 -- -- 61
2021-01-12 06:00:00 -3 8 Sudeste 15 Sur 0 -- -- 64
2021-01-12 05:00:00 -2.3 11 Sur 16 Sur 0 -- -- 56
2021-01-12 04:00:00 -3 9 Sudeste 18 Sur 0 -- -- 64
2021-01-12 03:00:00 -2.5 8 Sur 13 Sur 0 -- -- 57
2021-01-12 02:00:00 -2.8 7 Sur 14 Sur 0 -- -- 62
2021-01-12 01:00:00 -2.4 8 Sur 13 Sur 0 -- -- 60
2021-01-12 00:00:00 -2.2 5 Sudeste 12 Sudeste 0 -- -- 63
2021-01-11 23:00:00 -2.5 6 Sudeste 12 Sudeste 0 -- -- 67
2021-01-11 22:00:00 -2.6 6 Sudeste 10 Sur 0 -- -- 70
2021-01-11 21:00:00 -2.2 6 Sudeste 11 Sudeste 0 -- -- 69
2021-01-11 20:00:00 -1.7 6 Sudeste 12 Sudeste 0 -- -- 67
2021-01-11 19:00:00 -0.8 5 Sudeste 13 Sur 0 -- -- 67
2021-01-11 18:00:00 2 11 Nordeste 36 Nordeste 0 -- -- 55
2021-01-11 17:00:00 3.4 16 Nordeste 34 Nordeste 0 -- -- 53
2021-01-11 16:00:00 3.8 15 Nordeste 36 Nordeste 0 -- -- 52
2021-01-11 15:00:00 4.4 17 Nordeste 39 Norte 0 -- -- 50
2021-01-11 14:00:00 4.9 14 Nordeste 30 Nordeste 0 -- -- 45
2021-01-11 13:00:00 4.1 7 Sudoeste 15 Noroeste 0 -- -- 47
2021-01-11 12:00:00 3 4 Oeste 12 Sudoeste 0 -- -- 49
2021-01-11 11:00:00 -0.1 4 Sur 9 Sur 0 -- -- 60
2021-01-11 10:00:00 -2.4 8 Sur 14 Sur 0 -- -- 70
2021-01-11 09:00:00 -2.4 4 Sudoeste 16 Oeste 0 -- -- 68
2021-01-11 08:00:00 -2.6 4 Sudoeste 16 Sur 0 -- -- 68
2021-01-11 07:00:00 -2.7 4 Sudeste 19 Oeste 0 -- -- 69
2021-01-11 06:00:00 -2.2 4 Sudoeste 15 Sur 0 -- -- 68
2021-01-11 05:00:00 -2.1 7 Este 17 Este 0 -- -- 68
2021-01-11 04:00:00 -2.4 8 Sur 15 Sur 0 -- -- 72
2021-01-11 03:00:00 -2.1 4 Sur 12 Sur 0 -- -- 75
2021-01-11 02:00:00 -1.6 3 Sudeste 9 Sur 0 -- -- 76
2021-01-11 01:00:00 -0.5 3 Sudoeste 22 Este 0 -- -- 72
2021-01-11 00:00:00 0.4 6 Este 14 Este 0 -- -- 69
2021-01-10 23:00:00 0.5 3 Noroeste 14 Noroeste 0 -- -- 72
2021-01-10 22:00:00 0.1 8 Sudeste 16 Noroeste 0 -- -- 77
2021-01-10 21:00:00 1.1 8 Noroeste 18 Noroeste 0 -- -- 73
2021-01-10 20:00:00 0 8 Sur 12 Sur 0 -- -- 73
2021-01-10 19:00:00 0.2 4 Sur 11 Este 0 -- -- 75
2021-01-10 18:00:00 2 6 Nordeste 31 Nordeste 0 -- -- 67
2021-01-10 17:00:00 2.2 12 Nordeste 35 Nordeste 0 -- -- 67
2021-01-10 16:00:00 2.6 16 Nordeste 55 Nordeste 0 -- -- 66
2021-01-10 15:00:00 2.5 23 Nordeste 45 Nordeste 0 -- -- 67
2021-01-10 14:00:00 4.1 13 Nordeste 29 Norte 0 -- -- 59
2021-01-10 13:00:00 4.1 4 Sur 11 Sudoeste 0 -- -- 60
2021-01-10 12:00:00 2.7 4 Oeste 13 Noroeste 0 -- -- 68
2021-01-10 11:00:00 1 5 Sur 23 Sur 0 -- -- 72
2021-01-10 10:00:00 -0.8 9 Sudoeste 20 Sudoeste 0 -- -- 78
2021-01-10 09:00:00 -2.3 3 Sur 13 Sur 0 -- -- 78
2021-01-10 08:00:00 -2.8 3 Sur 14 Sudoeste 0 -- -- 78
2021-01-10 07:00:00 -3.7 5 Sudeste 10 Sudeste 0 -- -- 85
2021-01-10 06:00:00 -3.3 4 Sudeste 7 Sudoeste 0 -- -- 87
2021-01-10 05:00:00 -3.2 4 Sudeste 8 Sudoeste 0 -- -- 87
2021-01-10 04:00:00 -2.3 4 Sudoeste 9 Sur 0 -- -- 84
2021-01-10 03:00:00 -2.1 3 Sur 7 Sur 0 -- -- 85
2021-01-10 02:00:00 -1.5 4 Sudeste 9 Sur 0 -- -- 85
2021-01-10 01:00:00 -1 0 Calma 4 Sudoeste 0 -- -- 85
2021-01-10 00:00:00 -1.1 3 Sudeste 5 Sur 0 -- -- 84
2021-01-09 23:00:00 -1.1 2 Sur 3 Sudoeste 0 -- -- 87
2021-01-09 22:00:00 -0.8 0 Calma 3 Sur 0 -- -- 85
2021-01-09 21:00:00 -0.7 0 Calma 8 Sudoeste 0 -- -- 83
2021-01-09 20:00:00 -0.7 4 Sudoeste 9 Sudoeste 0 -- -- 81
2021-01-09 19:00:00 -0.5 3 Sudoeste 10 Oeste 0 -- -- 79
2021-01-09 18:00:00 -0.1 4 Sudoeste 13 Noroeste 0 -- -- 76
2021-01-09 17:00:00 0.3 0 Calma 21 Nordeste 0 -- -- 72
2021-01-09 16:00:00 0.7 10 Nordeste 25 Nordeste 0 -- -- 70
2021-01-09 15:00:00 0.3 13 Nordeste 30 Norte 0 -- -- 72
2021-01-09 14:00:00 0.9 13 Nordeste 26 Nordeste 0 -- -- 70
2021-01-09 13:00:00 0.7 10 Norte 24 Norte 0 -- -- 69
2021-01-09 12:00:00 0.7 7 Este 18 Norte 0 -- -- 73
2021-01-09 11:00:00 0.1 3 Norte 11 Sudoeste 0 -- -- 76
2021-01-09 10:00:00 -0.6 6 Sudoeste 15 Sur 0 -- -- 79
2021-01-09 09:00:00 -0.8 4 Sudoeste 9 Sudoeste 0 -- -- 81
2021-01-09 08:00:00 -0.7 5 Sur 9 Sudoeste 0 -- -- 79
2021-01-09 07:00:00 -0.7 5 Sudoeste 13 Oeste 0 -- -- 81
2021-01-09 06:00:00 -0.5 5 Sudoeste 10 Sudoeste 0 -- -- 82
2021-01-09 05:00:00 -0.2 5 Sur 15 Sudoeste 0 -- -- 80
2021-01-09 04:00:00 -0.2 4 Sudoeste 12 Sudoeste 0 -- -- 83
2021-01-09 03:00:00 -0.2 5 Sudoeste 13 Sudoeste 0 -- -- 84
2021-01-09 02:00:00 -0.3 5 Sudoeste 14 Sudoeste 0 -- -- 84
2021-01-09 01:00:00 -0.7 4 Sudoeste 8 Sudoeste 0 -- -- 91
2021-01-09 00:00:00 -0.7 0 Calma 4 Sur 0 -- -- 91
2021-01-08 23:00:00 -0.9 0 Calma 4 Nordeste 0 -- -- 92
2021-01-08 22:00:00 -0.8 0 Calma 11 Sudoeste 0 -- -- 87
2021-01-08 21:00:00 -0.6 4 Sudoeste 15 Oeste 0 -- -- 83
2021-01-08 20:00:00 -0.4 6 Sudoeste 12 Sudoeste 0 -- -- 82
2021-01-08 19:00:00 -0.2 4 Sudoeste 10 Sudoeste 0 -- -- 81
2021-01-08 18:00:00 0.4 6 Sudoeste 14 Oeste 0 -- -- 77
2021-01-08 17:00:00 1.3 5 Noroeste 14 Noroeste 0 -- -- 71
2021-01-08 16:00:00 1.9 5 Oeste 12 Norte 0 -- -- 67
2021-01-08 15:00:00 2.2 4 Oeste 11 Noroeste 0 -- -- 63
2021-01-08 14:00:00 1.7 6 Sudoeste 15 Oeste 0 -- -- 65
2021-01-08 13:00:00 1.2 4 Sudoeste 8 Sudoeste 0 -- -- 66
2021-01-08 12:00:00 0.6 3 Oeste 7 Sudoeste 0 -- -- 67
2021-01-08 11:00:00 0.2 3 Sur 5 Sur 0 -- -- 79
2021-01-08 10:00:00 -0.8 3 Sudeste 7 Sur 0 -- -- 77
2021-01-08 09:00:00 -1.8 5 Sur 8 Sur 0 -- -- 81
2021-01-08 08:00:00 -2 3 Sur 11 Sur 0 -- -- 79
2021-01-08 07:00:00 -1.6 7 Sur 11 Sur 0 -- -- 75
2021-01-08 06:00:00 -2.3 5 Sudeste 13 Sur 0 -- -- 81
2021-01-08 05:00:00 -2.3 7 Sur 13 Sur 0 -- -- 81
2021-01-08 04:00:00 -2.8 6 Sur 13 Sur 0 -- -- 87
2021-01-08 03:00:00 -2.6 6 Sudeste 14 Sur 0 -- -- 85
2021-01-08 02:00:00 -2.7 5 Sudeste 10 Sur 0 -- -- 89
2021-01-08 01:00:00 -2.5 5 Sudeste 9 Sur 0 -- -- 89
2021-01-08 00:00:00 -2.2 5 Sur 11 Sur 0 -- -- 86
2021-01-07 23:00:00 -1.8 5 Sur 10 Sur 0 -- -- 84
2021-01-07 22:00:00 -1.6 5 Sur 10 Sur 0 -- -- 86
2021-01-07 21:00:00 -0.5 5 Sur 10 Sur 0 -- -- 79
2021-01-07 20:00:00 -0.5 5 Sur 12 Sur 0 -- -- 78
2021-01-07 19:00:00 0.7 4 Sudeste 14 Sudoeste 0 -- -- 75
2021-01-07 18:00:00 3.9 4 Sudoeste 12 Sudoeste 0 -- -- 63
2021-01-07 17:00:00 5.5 2 Sudoeste 12 Sur 0 -- -- 47
2021-01-07 16:00:00 5.9 6 Sur 10 Este 0 -- -- 42
2021-01-07 15:00:00 5.7 5 Sur 10 Sur 0 -- -- 45
2021-01-07 14:00:00 5.1 4 Oeste 11 Oeste 0 -- -- 42
2021-01-07 13:00:00 3.8 2 Norte 5 Noroeste 0 -- -- 42
2021-01-07 12:00:00 2 2 Norte 5 Noroeste 0 -- -- 61
2021-01-07 11:00:00 1.5 0 Calma 5 Sudeste 0 -- -- 57
2021-01-07 10:00:00 -0.4 4 Sudeste 6 Sudeste 0 -- -- 69
2021-01-07 09:00:00 -0.8 4 Sudeste 10 Sur 0 -- -- 62
2021-01-07 08:00:00 -1 8 Sur 12 Sudeste 0 -- -- 65
2021-01-07 07:00:00 -1 7 Sur 12 Sur 0 -- -- 63
2021-01-07 06:00:00 -0.3 5 Sudeste 10 Sur 0 -- -- 70
2021-01-07 05:00:00 -0.4 6 Sudeste 11 Sur 0 -- -- 70
2021-01-07 04:00:00 -0.5 8 Sur 10 Sur 0 -- -- 73
2021-01-07 03:00:00 -0.8 6 Sudeste 12 Sur 0 -- -- 71
2021-01-07 02:00:00 -0.4 10 Sur 14 Sur 0 -- -- 65
2021-01-07 01:00:00 -1.5 6 Sudeste 10 Sudeste 0 -- -- 72
2021-01-07 00:00:00 -1.5 6 Sur 12 Sur 0 -- -- 77
2021-01-06 23:00:00 -1.6 8 Sur 14 Sur 0 -- -- 80
2021-01-06 22:00:00 -1.7 9 Sur 14 Sur 0 -- -- 81
2021-01-06 21:00:00 -1 6 Sudeste 10 Sur 0 -- -- 80
2021-01-06 20:00:00 -0.9 7 Sudeste 12 Sur 0 -- -- 80
2021-01-06 19:00:00 -0.4 8 Sur 11 Sur 0 -- -- 78
2021-01-06 18:00:00 0.9 3 Sudeste 7 Sur 0 -- -- 74
2021-01-06 17:00:00 4.4 0 Calma 9 Oeste 0 -- -- 54
2021-01-06 16:00:00 5.8 4 Oeste 8 Noroeste 0 -- -- 48
2021-01-06 15:00:00 4.9 3 Noroeste 13 Noroeste 0 -- -- 52
2021-01-06 14:00:00 5 5 Oeste 11 Noroeste 0 -- -- 48
2021-01-06 13:00:00 3.9 4 Noroeste 6 Noroeste 0 -- -- 44
2021-01-06 12:00:00 3.4 0 Calma 4 Sur 0 -- -- 49
2021-01-06 11:00:00 -0.1 4 Sur 12 Sur 0 -- -- 60
2021-01-06 10:00:00 -2.4 8 Sur 15 Sur 0 -- -- 73
2021-01-06 09:00:00 -3 8 Sudeste 14 Sur 0 -- -- 73
2021-01-06 08:00:00 -2.8 8 Sudeste 14 Sur 0 -- -- 73
2021-01-06 07:00:00 -2.7 9 Sur 13 Sur 0 -- -- 72
2021-01-06 06:00:00 -2.9 8 Sur 14 Sur 0 -- -- 77
2021-01-06 05:00:00 -2.7 8 Sur 14 Sur 0 -- -- 76
2021-01-06 04:00:00 -2.5 8 Sur 15 Sur 0 -- -- 73
2021-01-06 03:00:00 -2.5 8 Sur 16 Sur 0 -- -- 75
2021-01-06 02:00:00 -2.2 10 Sur 14 Sur 0 -- -- 75
2021-01-06 01:00:00 -2.5 8 Sudeste 13 Sur 0 -- -- 78
2021-01-06 00:00:00 -1.8 10 Sur 14 Sur 0 -- -- 73
2021-01-05 23:00:00 -1.4 8 Sur 14 Sur 0 -- -- 75
2021-01-05 22:00:00 -0.6 11 Sur 14 Sur 0 -- -- 70
2021-01-05 21:00:00 -1.4 8 Sur 15 Sur 0 -- -- 77
2021-01-05 20:00:00 -0.9 7 Sur 16 Sur 0 -- -- 73
2021-01-05 19:00:00 -0.3 12 Sur 16 Sur 0 -- -- 71
2021-01-05 18:00:00 1.2 9 Sur 13 Sur 0 -- -- 64
2021-01-05 17:00:00 4.6 5 Sur 12 Oeste 0 -- -- 50
2021-01-05 16:00:00 5.3 7 Noroeste 13 Oeste 0 -- -- 45
2021-01-05 15:00:00 5.1 6 Oeste 13 Noroeste 0 -- -- 43
2021-01-05 14:00:00 4.4 5 Noroeste 13 Oeste 0 -- -- 48
2021-01-05 13:00:00 3.6 5 Oeste 12 Oeste 0 -- -- 51
2021-01-05 12:00:00 2.8 3 Sudoeste 11 Sur 0 -- -- 47
2021-01-05 11:00:00 -0.1 7 Sur 13 Sur 0 -- -- 59
2021-01-05 10:00:00 -2 8 Sur 12 Sur 0 -- -- 68
2021-01-05 09:00:00 -2.7 5 Sudeste 12 Sur 0 -- -- 72
2021-01-05 08:00:00 -2.7 7 Sudeste 13 Sur 0 -- -- 76
2021-01-05 07:00:00 -2.5 6 Sudeste 12 Sur 0 -- -- 73
2021-01-05 06:00:00 -3 7 Sur 12 Sur 0 -- -- 79
2021-01-05 05:00:00 -2.5 7 Sudeste 12 Sudeste 0 -- -- 78
2021-01-05 04:00:00 -2.5 8 Sur 14 Sur 0 -- -- 83
2021-01-05 03:00:00 -2 7 Sudeste 13 Sur 0 -- -- 80
2021-01-05 02:00:00 -1.9 6 Sudeste 13 Sudeste 0 -- -- 83
2021-01-05 01:00:00 -1.6 8 Sur 12 Sur 0 -- -- 80
2021-01-05 00:00:00 -0.7 6 Sur 16 Sur 0 -- -- 77
2021-01-04 23:00:00 -0.5 9 Sur 16 Sur 0 -- -- 77
2021-01-04 22:00:00 -0.7 5 Sudeste 14 Sur 0 -- -- 81
2021-01-04 21:00:00 -0.2 5 Sur 12 Sur 0 -- -- 79
2021-01-04 20:00:00 0.3 6 Sudeste 13 Sur 0 -- -- 76
2021-01-04 19:00:00 2.4 0 Calma 8 Nordeste 0 -- -- 63
2021-01-04 18:00:00 4 4 Norte 14 Norte 0 -- -- 58
2021-01-04 17:00:00 5.4 5 Noroeste 14 Noroeste 0 -- -- 50
2021-01-04 16:00:00 4.6 6 Norte 16 Norte 0 -- -- 57
2021-01-04 15:00:00 4.7 6 Noroeste 18 Noroeste 0 -- -- 61
2021-01-04 14:00:00 4.9 6 Noroeste 16 Norte 0 -- -- 58
2021-01-04 13:00:00 4.4 8 Noroeste 18 Norte 0 -- -- 60
2021-01-04 12:00:00 3.6 0 Calma 8 Nordeste 0 -- -- 66
2021-01-04 11:00:00 2 0 Calma 8 Sudoeste 0 -- -- 86
2021-01-04 10:00:00 1.3 4 Sur 7 Oeste 0 -- -- 93
2021-01-04 09:00:00 1.6 0 Calma 4 Sudeste 0 -- -- 87
2021-01-04 08:00:00 2 2 Sudoeste 3 Sudoeste 0 -- -- 86
2021-01-04 07:00:00 1.8 0 Calma 3 Sur 0 -- -- 89
2021-01-04 06:00:00 1.7 0 Calma 8 Sudeste 0 -- -- 85
2021-01-04 05:00:00 1.5 4 Sudeste 6 Sudeste 0 -- -- 87
2021-01-04 04:00:00 1.7 2 Oeste 5 Sudeste 0 -- -- 83
2021-01-04 03:00:00 1.6 0 Calma 5 Sudeste 0 -- -- 84
2021-01-04 02:00:00 1.9 0 Calma 5 Sur 0 -- -- 79
2021-01-04 01:00:00 1.6 4 Sudeste 7 Oeste 0 -- -- 80
2021-01-04 00:00:00 1.2 3 Sudeste 7 Sur 0 -- -- 81
2021-01-03 23:00:00 2 3 Sur 17 Sudoeste 0 -- -- 75
2021-01-03 22:00:00 1.9 5 Sudoeste 10 Sur 0 -- -- 72
2021-01-03 21:00:00 2.4 3 Sudoeste 9 Sur 0 -- -- 70
2021-01-03 20:00:00 2.2 7 Sur 10 Sur 0 -- -- 76
2021-01-03 19:00:00 1.7 6 Sudeste 9 Sur 0 -- -- 80
2021-01-03 18:00:00 2.4 5 Sur 8 Sur 0 -- -- 72
2021-01-03 17:00:00 4.5 2 Norte 13 Norte 0 -- -- 61
2021-01-03 16:00:00 5 6 Norte 17 Norte 0 -- -- 62
2021-01-03 15:00:00 5.7 7 Norte 17 Norte 0 -- -- 57
2021-01-03 14:00:00 5.4 5 Noroeste 12 Noroeste 0 -- -- 55
2021-01-03 13:00:00 4.2 4 Noroeste 15 Oeste 0 -- -- 55
2021-01-03 12:00:00 2.7 4 Oeste 9 Oeste 0 -- -- 60
2021-01-03 11:00:00 -0.1 2 Sur 5 Sur 0 -- -- 76
2021-01-03 10:00:00 -1.1 0 Calma 9 Sudeste 0 -- -- 75
2021-01-03 09:00:00 -1.5 5 Sudeste 13 Sur 0 -- -- 77
2021-01-03 08:00:00 -1.7 5 Sudeste 14 Sur 0 -- -- 78
2021-01-03 07:00:00 -1.9 4 Sur 9 Sudeste 0 -- -- 78
2021-01-03 06:00:00 -1.9 6 Sudeste 11 Sur 0 -- -- 80
2021-01-03 05:00:00 -1.1 5 Sur 10 Sur 0 -- -- 74
2021-01-03 04:00:00 -1.1 4 Sur 10 Sudeste 0 -- -- 76
2021-01-03 03:00:00 -1 5 Sudeste 12 Sudeste 0 -- -- 79
2021-01-03 02:00:00 -0.9 5 Sur 9 Sudeste 0 -- -- 83
2021-01-03 01:00:00 -1 6 Sudeste 9 Sudeste 0 -- -- 84
2021-01-03 00:00:00 -0.5 6 Sudeste 12 Sur 0 -- -- 79
2021-01-02 23:00:00 0.2 2 Sudeste 13 Sur 0 -- -- 72
2021-01-02 22:00:00 0.7 4 Sur 12 Norte 0 -- -- 69
2021-01-02 21:00:00 0.5 4 Sudeste 7 Sudeste 0 -- -- 71
2021-01-02 20:00:00 0.4 6 Sudeste 11 Sur 0 -- -- 70
2021-01-02 19:00:00 1 6 Sudeste 13 Sudeste 0 -- -- 70
2021-01-02 18:00:00 2 5 Sudeste 14 Este 0 -- -- 67
2021-01-02 17:00:00 3.8 4 Nordeste 22 Este 0 -- -- 52
2021-01-02 16:00:00 3.6 10 Este 29 Este 0 -- -- 56
2021-01-02 15:00:00 3.5 10 Nordeste 23 Nordeste 0 -- -- 56
2021-01-02 14:00:00 3.2 12 Nordeste 31 Nordeste 0 -- -- 56